Home > Weather > Trenton > Past weeks

Flag for U.S.A. Weather for the Past 2 Weeks in Trenton, New Jersey, U.S.A.

Now
36 °F

Clear.


Feels Like: 31 °F
Forecast: 31 / 38 °F
Wind: 6 mph from North

Location: Mercer County Airport

Current Time: Feb 7, 2016 at 11:13:47 PM

Latest Report: Feb 7, 2016 at 9:53 PM


Visibility: 10 mi

Pressure: 29.91 "Hg

Humidity: 67%

Dew point: 26 °F

Location of TrentonLocation

Historic Weather in Trenton — Graph

°F

Trenton Temperature Yesterday

Maximum temperature yesterday: 40 °F (at 12:53 PM)
Minimum temperature yesterday: 22 °F (at 6:53 AM)
Average temperature yesterday: 31 °F

High & Low Weather Summary for the Past Weeks

 TemperatureHumidityPressure
High59 °F (Feb 3, 2:53 PM)100% (Feb 3, 4:53 PM)30.42 "Hg (Feb 3, 4:53 PM)
Low15 °F (Jan 25, 6:53 AM)36% (Feb 2, 3:53 PM)29.48 "Hg (Jan 29, 7:53 AM)
Average37 °F65%30.02 "Hg
* Reported Jan 23 8:58 PM — Feb 7 8:53 PM, Trenton, Weather by CustomWeather, © 2016

Note: Actual official high and low records may vary slightly from our data, if they occured in-between our weather recording intervals... More about our weather records

Advertising

Trenton Weather History for the Previous 24 Hours

 ConditionsComfort  
Time TempWeatherWind HumidityBarometerVisibility
8:53 PM
Sun, Feb 7
38 °FClear.5 mph63%29.93 "Hg10 mi
7:53 PM38 °FClear.7 mph55%29.96 "Hg10 mi
6:53 PM39 °FClear.8 mph50%29.97 "Hg10 mi
5:53 PM39 °FClear.6 mph53%29.98 "Hg10 mi
4:53 PM41 °FSunny.5 mph49%30.00 "Hg10 mi
3:53 PM43 °FSunny.6 mph43%30.01 "Hg10 mi
2:53 PM44 °FSunny.6 mph40%30.02 "Hg10 mi
1:53 PM45 °FSunny.7 mph42%30.07 "Hg10 mi
12:53 PM44 °FSunny.5 mph41%30.09 "Hg10 mi
11:53 AM43 °FSunny.3 mph45%30.12 "Hg10 mi
10:53 AM41 °FSunny.5 mph49%30.13 "Hg10 mi
9:53 AM36 °FSunny.No wind67%30.17 "Hg10 mi
8:53 AM31 °FSunny.No wind82%30.17 "Hg6 mi
7:53 AM27 °FIce fog.No wind85%30.16 "Hg6 mi
6:53 AM23 °FClear.No wind85%30.17 "Hg7 mi
5:53 AM24 °FClear.3 mph88%30.19 "Hg7 mi
4:53 AM25 °FClear.No wind85%30.17 "Hg8 mi
3:53 AM25 °FClear.No wind85%30.19 "Hg8 mi
2:53 AM29 °FClear.No wind82%30.22 "Hg9 mi
1:53 AM27 °FClear.No wind81%30.22 "Hg9 mi
12:53 AM28 °FClear.No wind75%30.22 "Hg10 mi
11:53 PM
Sat, Feb 6
28 °FClear.No wind72%30.24 "Hg10 mi
Weather by CustomWeather, © 2016

See weather overviewHow to use our weather pages